Lid_Strength_Index
13 13 12 12 12 11 10 9 7 6 4 2 0 0 0 1 3 5 5 7 7 7
13 13 12 12 11 11 10 10 8 7 7 6 4 0 0 1 3 5 6 7 7 7
13 12 12 12 11 11 10 10 9 8 7 6 6 1 1 3 4 5 7 7 8 8
11 11 12 12 11 11 11 10 10 9 8 7 6 2 3 3 5 6 6 7 7 8
10 10 10 10 9 9 9 9 9 9 9 8 6 3 2 4 5 6 6 7 7 7
11 11 11 11 10 10 9 8 8 8 8 7 5 4 2 3 5 6 6 6 6 6
11 11 11 11 11 11 10 9 8 8 8 7 5 4 1 3 5 5 5 5 5 7
10 10 10 10 11 10 10 10 8 8 8 7 6 4 2 3 5 6 7 6 6 7
9 8 9 9 10 11 10 9 8 7 7 7 5 5 4 2 4 6 7 8 8 7
8 9 9 10 10 10 8 7 5 5 6 7 5 4 6 5 5 6 8 7 8 7
8 9 9 10 10 10 9 9 8 7 5 4 2 6 7 6 5 7 8 8 7 8
8 9 9 10 11 10 10 11 11 9 9 9 7 6 7 6 7 8 9 10 10 10
8 9 10 10 10 11 11 11 10 10 11 9 9 9 8 7 8 10 12 12 12 12
7 9 9 10 10 10 11 10 10 10 11 11 12 11 10 9 10 11 12 13 13 12